Dewpoint
39 39 38 37 35 34 34 34 34 34 34 34 34 33 33 31 30 30 30 30 29 29 29 29 28 27 27 26 26 26 25 25 25 25 25 25 25 26 26 27 27 27 27 27 28 27 26 26 27 29 30 31 31 30 30 30 31 31 30 31 30 31 32 33 33 33 33 33 33
37 38 37 36 34 33 32 31 32 33 33 33 33 32 31 30 29 29 29 29 29 29 28 28 27 26 25 25 25 25 24 24 24 24 24 24 25 25 26 26 26 26 26 26 26 26 25 25 26 27 28 29 28 27 27 29 29 28 27 28 27 28 29 29 29 29 29 29 30
34 34 35 35 34 31 29 29 29 30 30 30 31 30 29 29 28 28 28 28 27 27 27 26 26 25 25 25 25 24 24 23 23 23 23 23 24 25 25 25 25 25 25 25 25 25 25 24 25 25 26 25 25 24 24 24 25 25 25 25 25 26 26 26 26 27 27 27 29
31 31 32 34 33 32 29 28 28 28 28 28 29 29 28 27 27 27 27 26 26 25 25 26 26 25 25 24 24 23 23 23 23 23 22 23 23 24 24 25 24 24 24 24 25 25 25 24 24 24 24 23 22 22 22 22 22 23 24 24 25 25 25 24 25 25 26 27 29
28 29 30 31 32 31 30 29 27 26 26 27 26 26 26 26 26 26 26 25 25 25 25 26 25 25 24 24 23 22 22 22 23 23 22 22 23 23 24 24 23 23 23 24 25 25 25 23 22 22 22 21 21 21 21 21 21 22 23 24 24 24 24 24 25 26 27 27 28
26 27 28 29 30 29 29 28 26 26 25 25 25 25 25 25 25 25 24 24 24 24 25 24 23 22 22 22 21 21 21 21 22 22 22 22 22 23 22 22 22 21 22 22 22 23 23 21 21 20 20 20 20 20 20 20 21 22 23 23 23 23 24 25 25 26 27 27 27
25 25 26 27 28 28 28 27 26 25 25 24 24 24 25 25 25 24 24 24 23 23 23 23 22 21 21 21 20 20 20 20 21 21 21 22 22 21 21 21 20 20 20 20 20 20 20 20 20 20 20 19 19 19 20 21 21 22 22 22 23 24 25 26 27 27 27 27 27
24 25 25 25 26 27 27 26 25 24 23 23 23 24 24 25 24 23 23 22 22 22 23 23 22 21 21 21 20 19 19 19 20 20 21 21 21 20 20 19 18 19 19 19 19 19 19 20 19 19 19 19 19 19 20 22 23 23 22 22 23 24 26 28 29 28 27 27 27
24 24 25 25 25 26 26 25 25 23 22 22 22 23 23 24 24 23 22 21 22 22 22 21 21 20 20 20 19 19 19 19 18 19 20 20 19 19 18 18 17 17 18 18 18 18 18 18 18 18 18 19 19 20 21 23 24 24 23 23 23 24 25 27 27 27 26 27 27
23 23 24 24 24 25 25 25 24 23 22 21 21 22 22 23 23 22 21 21 22 21 20 20 20 19 19 19 19 20 20 19 19 18 18 19 18 18 18 18 17 16 16 17 17 18 18 18 17 18 19 19 19 20 22 24 24 24 23 23 24 25 25 25 25 25 25 26 27
22 22 23 23 23 23 23 23 22 22 21 21 21 21 21 21 21 21 21 22 21 20 19 20 20 19 18 19 19 19 19 19 19 18 18 17 18 18 18 18 17 16 16 17 18 18 18 18 18 19 19 19 20 20 21 22 23 23 24 24 25 25 25 25 25 25 25 26 27
21 22 22 22 23 22 22 21 21 21 21 20 20 20 20 20 20 21 21 20 19 19 19 20 20 19 19 19 19 19 18 18 18 17 17 16 17 17 17 17 17 16 16 17 18 19 19 19 19 19 18 18 20 20 21 22 22 23 23 24 25 25 25 24 25 25 25 26 27
20 20 21 22 22 21 21 20 20 20 20 20 20 20 19 19 19 20 20 19 18 19 19 20 20 20 20 19 19 19 19 18 17 17 16 16 16 16 16 16 16 16 17 18 19 19 19 19 19 19 18 18 19 20 21 22 22 22 23 23 23 23 23 24 24 25 25 26 27
19 20 20 20 21 20 20 20 20 19 19 19 19 19 18 18 18 18 18 18 18 18 19 19 19 19 19 19 19 19 18 18 17 16 16 15 16 15 15 16 16 16 17 18 19 19 18 18 18 18 18 18 19 20 21 22 22 22 23 22 22 22 23 23 24 25 25 26 26
18 19 19 20 20 20 19 19 18 18 18 18 18 18 17 16 17 18 19 18 18 18 18 18 18 18 19 19 18 18 17 17 16 16 15 14 14 15 15 16 16 16 17 18 18 18 18 18 18 18 19 19 20 20 21 22 22 22 23 23 22 22 22 23 23 24 25 26 25
17 18 18 19 19 19 18 18 17 17 17 17 17 17 16 16 16 18 19 19 18 17 17 17 17 18 18 18 18 17 16 16 16 15 14 13 13 14 15 15 16 16 17 17 16 16 17 18 18 19 19 20 20 20 21 21 21 22 23 23 23 22 22 22 22 23 24 25 24
16 17 17 18 18 18 18 17 17 16 16 17 17 17 16 16 16 17 18 18 17 17 16 17 17 17 17 17 18 17 17 16 15 14 14 13 13 13 14 15 16 17 17 16 16 15 15 16 18 19 20 20 21 21 21 21 22 22 23 23 23 22 22 23 22 23 23 24 23
16 16 17 17 17 17 18 18 17 17 17 17 17 17 17 17 17 17 18 18 18 17 16 16 17 17 17 17 17 18 18 16 15 15 14 14 14 14 14 15 16 17 17 17 16 15 14 15 17 18 20 21 22 22 22 22 22 22 22 23 23 23 23 23 23 23 23 22 23
16 16 16 16 17 17 18 18 18 18 18 18 18 18 18 18 18 18 18 18 18 17 17 17 17 17 17 17 17 17 18 17 16 15 15 15 15 15 15 15 16 16 17 17 16 15 15 16 17 18 20 21 22 22 23 23 23 22 22 22 23 23 23 23 23 24 23 23 23
16 16 16 17 17 17 18 17 17 17 17 18 17 18 18 18 18 17 17 17 17 18 17 17 17 16 17 17 17 17 17 18 17 16 15 16 16 15 15 15 15 16 16 17 16 16 16 17 18 19 20 21 21 22 23 23 23 23 23 23 23 24 24 24 24 25 24 24 23
16 16 17 17 17 17 17 17 17 17 16 17 17 17 17 17 17 17 17 17 17 17 17 17 17 16 17 17 17 16 16 17 17 16 16 16 16 15 16 16 16 16 16 17 16 16 17 18 19 20 21 22 22 23 23 23 23 24 24 24 24 24 25 25 25 25 24 24 24
17 17 17 17 17 18 18 17 17 16 16 16 16 17 17 16 16 16 17 17 17 17 17 17 17 17 17 17 17 17 17 17 17 17 16 16 16 16 16 16 16 16 16 16 17 18 19 21 22 22 23 23 23 23 24 24 24 24 24 24 24 24 25 25 25 24 24 23 23
17 17 17 17 17 17 18 17 16 16 16 16 16 16 16 16 16 16 16 16 16 16 16 16 17 17 17 18 17 17 16 16 16 16 16 16 16 16 16 16 16 16 16 16 18 20 22 23 23 24 24 24 23 24 24 24 24 24 24 24 24 24 24 25 24 24 23 22 22
16 16 17 17 16 16 16 16 16 16 16 16 16 16 16 16 16 15 15 15 15 16 16 16 16 17 18 18 17 16 16 15 15 15 15 15 15 15 15 15 15 15 16 19 21 24 25 25 25 24 24 24 24 24 25 25 25 25 25 24 24 24 24 24 24 23 22 21 21
16 16 16 16 16 16 16 16 16 16 16 16 16 16 15 15 15 15 15 15 15 15 16 16 16 17 18 18 17 16 16 15 15 15 15 15 15 15 15 15 15 16 19 21 24 25 27 27 26 25 25 25 25 25 25 25 25 25 25 25 24 24 24 24 24 23 22 21 21
16 16 16 16 16 16 16 16 16 16 16 16 16 16 16 15 15 15 15 15 15 15 16 16 16 17 18 17 16 16 16 16 16 16 16 15 15 15 15 15 16 18 20 22 25 27 28 29 29 28 26 25 25 25 25 25 25 25 25 25 25 25 24 23 22 22 22 21 21
16 16 16 16 16 16 16 16 16 16 16 16 16 16 16 16 15 15 14 15 15 16 16 16 16 17 17 16 16 15 15 16 16 16 16 16 16 16 15 15 16 18 20 23 26 27 29 29 30 29 29 27 26 26 25 25 25 26 26 25 25 25 24 23 22 21 21 21 21
16 16 16 16 16 16 16 16 16 16 16 16 16 16 16 16 15 14 15 15 15 16 16 16 17 16 16 16 16 16 16 16 16 16 16 16 16 16 16 15 16 17 20 24 26 28 28 29 29 30 30 29 28 27 27 26 25 25 25 24 24 23 23 23 22 21 21 21 21
16 16 16 16 16 16 16 16 16 16 16 16 16 16 16 15 15 15 15 15 15 16 16 16 17 16 16 15 16 16 16 16 16 17 17 17 16 16 16 16 16 18 21 25 26 27 28 29 29 30 30 30 28 27 26 25 25 24 24 23 23 23 23 23 22 22 22 22 21
16 16 16 16 16 16 16 16 16 16 16 16 16 15 15 15 15 15 15 15 16 16 17 17 17 16 16 16 16 16 16 16 16 17 17 16 16 16 16 16 16 18 22 25 26 27 28 29 29 29 30 30 29 27 25 25 24 24 23 23 23 23 23 23 23 22 22 22 22
16 16 16 16 16 16 16 16 16 16 16 16 16 15 15 15 15 15 16 16 16 17 18 18 17 16 16 16 16 16 16 16 16 16 16 16 16 16 16 16 16 18 21 25 26 27 28 29 29 29 30 30 29 27 25 25 24 24 23 23 23 23 23 23 23 22 22 22 22
16 16 16 16 16 16 16 16 16 16 16 16 16 15 15 15 16 16 16 17 17 18 18 17 16 16 16 16 15 15 16 16 16 16 16 16 16 16 16 16 16 18 21 25 26 27 28 29 29 29 29 30 29 27 25 24 23 23 23 23 23 23 23 22 22 22 22 22 22
16 16 16 16 16 16 16 16 16 16 16 16 16 15 16 16 17 17 17 17 17 17 17 16 16 16 16 15 15 15 15 16 16 16 16 17 16 16 16 16 16 18 21 25 26 27 28 29 29 29 29 30 28 26 24 24 23 22 22 22 23 23 23 23 23 23 22 22 22
16 16 16 16 16 16 16 16 16 16 16 16 16 16 16 17 17 17 17 17 18 18 17 17 16 16 16 16 16 15 15 16 16 16 16 16 16 16 16 16 15 18 23 25 26 27 28 28 29 29 29 29 28 25 24 23 22 22 22 22 22 22 22 23 23 23 23 22 22
16 16 16 16 16 16 16 16 16 16 16 16 15 16 17 17 17 17 17 18 18 18 17 17 17 16 16 16 16 16 16 15 15 15 15 16 16 16 16 16 16 19 23 25 26 27 27 28 28 29 29 29 26 25 23 22 22 21 21 21 21 21 21 22 23 23 23 22 22
16 16 16 16 16 16 16 16 16 16 16 16 16 16 17 17 17 17 17 18 18 18 17 17 16 16 16 16 16 15 15 15 15 15 15 15 15 15 15 15 16 19 23 25 26 26 27 28 28 29 28 27 25 24 23 22 21 21 21 20 20 20 21 22 22 22 22 22 22
16 16 16 16 16 16 16 16 16 16 16 16 16 17 17 17 17 17 17 18 18 17 17 16 16 16 16 16 16 16 16 16 15 15 15 16 15 15 14 15 15 18 21 24 25 26 27 27 28 28 27 25 24 23 22 22 21 21 20 20 20 20 20 21 21 21 22 23 25
16 16 16 16 16 16 16 16 16 16 16 16 16 17 17 17 17 17 18 19 18 17 16 16 16 16 16 17 16 16 16 16 16 16 15 15 14 14 15 15 16 18 20 23 25 26 27 27 28 28 27 25 23 22 22 21 21 21 20 20 20 20 20 21 20 21 24 26 29
16 16 16 16 16 16 16 16 16 16 16 16 17 17 16 17 17 17 18 18 18 17 17 16 16 16 17 17 17 16 16 16 16 16 15 14 14 16 16 16 16 17 19 22 25 25 26 27 28 28 27 25 23 22 22 22 21 21 20 20 20 20 20 20 21 24 28 31 32
16 16 16 16 16 16 16 16 16 16 16 17 16 16 16 17 17 18 18 18 17 17 17 16 16 16 17 18 17 16 16 15 15 15 15 15 15 17 18 16 16 16 18 21 24 25 26 27 28 28 27 25 23 22 22 22 21 21 20 20 19 19 19 20 24 28 32 33 31
16 16 16 17 16 16 16 16 16 16 17 17 16 17 17 18 18 18 17 17 17 17 16 16 16 16 17 18 17 16 15 15 15 15 15 15 16 17 18 16 16 16 17 20 23 25 26 27 28 28 27 25 23 23 22 22 21 20 20 19 19 19 20 24 29 31 32 29 26